TVF9822 LFBZ-GMMX

Flight info

Callsign TVF9822
Flight time 1h 57m
Altitude 37000
Route DONOS M299 PPN DCT NOLSA DCT ALEPO DCT VASUM N857 BANEV DCT BAN DCT PINAR DCT CJN L27 BLN DCT MGA DCT PIMOS DCT GALTO UN869 SLK UW900 TIXAL UG850 OBOGA
Aircraft A320/M-SDE3FGHIRWY/LB1

Departure

Time 2026-04-28 18:55
Airport Biarritz Pays Basque airport (LFBZ)

Arrival

Time 2026-04-28 20:53
Airport Marrakesh Menara Airport (GMMX)
Time Latitude Longitude Altitude Speed Heading
2026-04-28 18:25 43.47128 -1.52948 245 ft 0 kts 359°
2026-04-28 18:27 43.47129 -1.52948 245 ft 0 kts 359°
2026-04-28 18:45 43.47122 -1.52948 245 ft 4 kts 358°
2026-04-28 18:45 43.47095 -1.52944 245 ft 4 kts 348°
2026-04-28 18:45 43.47070 -1.52933 245 ft 4 kts 326°
2026-04-28 18:46 43.47054 -1.52909 245 ft 3 kts 274°
2026-04-28 18:46 43.47054 -1.52904 245 ft 0 kts 269°
2026-04-28 18:50 43.47054 -1.52914 245 ft 5 kts 269°
2026-04-28 18:50 43.47052 -1.53006 245 ft 12 kts 269°
2026-04-28 18:50 43.47048 -1.53125 245 ft 12 kts 255°
2026-04-28 18:50 43.46994 -1.53150 245 ft 10 kts 120°
2026-04-28 18:51 43.46989 -1.53064 245 ft 8 kts 89°
2026-04-28 18:51 43.46990 -1.52992 245 ft 7 kts 88°
2026-04-28 18:51 43.46991 -1.52921 245 ft 11 kts 88°
2026-04-28 18:51 43.46993 -1.52772 245 ft 20 kts 93°
2026-04-28 18:52 43.46995 -1.52564 245 ft 23 kts 89°
2026-04-28 18:52 43.46997 -1.52339 243 ft 22 kts 90°
2026-04-28 18:52 43.46980 -1.52196 241 ft 15 kts 127°
2026-04-28 18:52 43.46875 -1.52171 239 ft 15 kts 168°
2026-04-28 18:53 43.46838 -1.52065 239 ft 11 kts 90°
2026-04-28 18:53 43.46841 -1.51958 239 ft 13 kts 89°
2026-04-28 18:53 43.46843 -1.51787 237 ft 25 kts 89°
2026-04-28 18:53 43.46847 -1.51487 236 ft 35 kts 89°
2026-04-28 18:54 43.46851 -1.51171 234 ft 25 kts 90°
2026-04-28 18:54 43.46879 -1.51011 237 ft 12 kts 56°
2026-04-28 18:54 43.46861 -1.50990 237 ft 4 kts 219°
2026-04-28 18:54 43.46853 -1.51050 236 ft 8 kts 268°
2026-04-28 18:55 43.46852 -1.51154 234 ft 22 kts 269°
2026-04-28 18:55 43.46848 -1.51467 236 ft 75 kts 269°
2026-04-28 18:55 43.46825 -1.52942 277 ft 150 kts 269°
2026-04-28 18:55 43.46823 -1.54360 952 ft 148 kts 268°
2026-04-28 18:56 43.46790 -1.55798 1617 ft 152 kts 266°
2026-04-28 18:56 43.46749 -1.57287 2195 ft 163 kts 268°
2026-04-28 18:56 43.46733 -1.58951 2510 ft 184 kts 268°
2026-04-28 18:56 43.46399 -1.60695 2859 ft 200 kts 232°
2026-04-28 18:57 43.45198 -1.61678 3281 ft 211 kts 188°
2026-04-28 18:57 43.43714 -1.61234 3603 ft 235 kts 145°
2026-04-28 18:57 43.42581 -1.59639 4378 ft 239 kts 128°
2026-04-28 18:57 43.41398 -1.58046 5175 ft 241 kts 152°
2026-04-28 18:58 43.39817 -1.57264 5969 ft 243 kts 168°
2026-04-28 18:58 43.38142 -1.56877 6756 ft 246 kts 173°
2026-04-28 18:58 43.36430 -1.56598 7514 ft 249 kts 173°
2026-04-28 18:58 43.34745 -1.55961 8216 ft 256 kts 155°
2026-04-28 18:59 43.33185 -1.54572 8504 ft 280 kts 143°
2026-04-28 18:59 43.31616 -1.52880 9033 ft 291 kts 141°
2026-04-28 18:59 43.30038 -1.51107 9723 ft 296 kts 141°
2026-04-28 18:59 43.28323 -1.49590 10388 ft 300 kts 155°
2026-04-28 19:00 43.26269 -1.48710 10600 ft 321 kts 172°
2026-04-28 19:00 43.23982 -1.48305 10880 ft 338 kts 173°
2026-04-28 19:00 43.21626 -1.47906 11436 ft 344 kts 173°
2026-04-28 19:00 43.19242 -1.47495 12033 ft 348 kts 173°
2026-04-28 19:01 43.16824 -1.47068 12612 ft 351 kts 173°
2026-04-28 19:01 43.14391 -1.46631 13164 ft 355 kts 173°
2026-04-28 19:01 43.11930 -1.46188 13693 ft 358 kts 173°
2026-04-28 19:01 43.09449 -1.45747 14192 ft 361 kts 174°
2026-04-28 19:02 43.06930 -1.45720 14656 ft 364 kts 186°
2026-04-28 19:02 43.04482 -1.46449 15103 ft 367 kts 199°
2026-04-28 19:02 43.02168 -1.47923 15537 ft 369 kts 210°
2026-04-28 19:02 42.99932 -1.49677 15967 ft 372 kts 210°
2026-04-28 19:03 42.97675 -1.51437 16386 ft 375 kts 210°
2026-04-28 19:03 42.95399 -1.53203 16787 ft 378 kts 210°
2026-04-28 19:03 42.92994 -1.54660 17157 ft 380 kts 198°
2026-04-28 19:03 42.90454 -1.55721 17526 ft 383 kts 197°
2026-04-28 19:04 42.87896 -1.56765 17884 ft 385 kts 197°
2026-04-28 19:04 42.85316 -1.57801 18225 ft 388 kts 197°
2026-04-28 19:04 42.82753 -1.58826 18552 ft 390 kts 197°
2026-04-28 19:04 42.80142 -1.59872 18868 ft 392 kts 197°
2026-04-28 19:05 42.77516 -1.60932 19172 ft 394 kts 197°
2026-04-28 19:05 42.74884 -1.61998 19464 ft 397 kts 197°
2026-04-28 19:05 42.72233 -1.63074 19746 ft 399 kts 197°
2026-04-28 19:05 42.69568 -1.64155 20017 ft 401 kts 197°
2026-04-28 19:06 42.66890 -1.65238 20278 ft 402 kts 197°
2026-04-28 19:06 42.65107 -1.65957 20445 ft 404 kts 197°
2026-04-28 19:06 42.61497 -1.67411 20764 ft 406 kts 197°
2026-04-28 19:06 42.58783 -1.68501 20987 ft 408 kts 197°
2026-04-28 19:07 42.56058 -1.69595 21200 ft 409 kts 197°
2026-04-28 19:07 42.53323 -1.70692 21404 ft 411 kts 197°
2026-04-28 19:07 42.50577 -1.71792 21597 ft 412 kts 197°
2026-04-28 19:07 42.47823 -1.72895 21781 ft 413 kts 197°
2026-04-28 19:08 42.45102 -1.73984 21955 ft 415 kts 197°
2026-04-28 19:08 42.42330 -1.75091 22123 ft 416 kts 197°
2026-04-28 19:08 42.39550 -1.76201 22287 ft 417 kts 197°
2026-04-28 19:08 42.36761 -1.77316 22447 ft 418 kts 197°
2026-04-28 19:09 42.33965 -1.78435 22603 ft 420 kts 197°
2026-04-28 19:09 42.31160 -1.79555 22754 ft 421 kts 197°
2026-04-28 19:09 42.28349 -1.80677 22901 ft 422 kts 197°
2026-04-28 19:09 42.25535 -1.81796 23044 ft 423 kts 197°
2026-04-28 19:10 42.22746 -1.82905 23177 ft 424 kts 197°
2026-04-28 19:10 42.19913 -1.84029 23306 ft 425 kts 197°
2026-04-28 19:10 42.17071 -1.85153 23432 ft 426 kts 197°
2026-04-28 19:10 42.14225 -1.86280 23557 ft 427 kts 197°
2026-04-28 19:11 42.11373 -1.87408 23682 ft 427 kts 197°
2026-04-28 19:11 42.08517 -1.88537 23807 ft 428 kts 197°
2026-04-28 19:11 42.05657 -1.89668 23932 ft 429 kts 197°
2026-04-28 19:11 42.02795 -1.90800 24057 ft 429 kts 197°
2026-04-28 19:12 41.99929 -1.91932 24183 ft 429 kts 197°
2026-04-28 19:12 41.97061 -1.93064 24308 ft 430 kts 197°
2026-04-28 19:12 41.94237 -1.94179 24431 ft 430 kts 197°
2026-04-28 19:12 41.91366 -1.95311 24556 ft 430 kts 197°
2026-04-28 19:13 41.88493 -1.96442 24681 ft 430 kts 196°
2026-04-28 19:13 41.85619 -1.97571 24806 ft 430 kts 196°
2026-04-28 19:13 41.82745 -1.98698 24930 ft 430 kts 196°
2026-04-28 19:13 41.79871 -1.99824 25054 ft 430 kts 196°
2026-04-28 19:14 41.76998 -2.00949 25179 ft 430 kts 196°
2026-04-28 19:14 41.74127 -2.02069 25304 ft 430 kts 196°
2026-04-28 19:14 41.71258 -2.03186 25428 ft 429 kts 196°
2026-04-28 19:14 41.68431 -2.04290 25551 ft 429 kts 196°
2026-04-28 19:15 41.65570 -2.05408 25675 ft 428 kts 196°
2026-04-28 19:15 41.62712 -2.06524 25800 ft 428 kts 196°
2026-04-28 19:15 41.59864 -2.07636 25924 ft 427 kts 196°
2026-04-28 19:15 41.57973 -2.08373 26007 ft 427 kts 196°
2026-04-28 19:16 41.54164 -2.09853 26174 ft 426 kts 196°
2026-04-28 19:16 41.51319 -2.10959 26299 ft 425 kts 196°
2026-04-28 19:16 41.48478 -2.12061 26423 ft 425 kts 196°
2026-04-28 19:16 41.45639 -2.13161 26548 ft 424 kts 196°
2026-04-28 19:17 41.42805 -2.14259 26673 ft 424 kts 196°
2026-04-28 19:17 41.39975 -2.15354 26798 ft 423 kts 196°
2026-04-28 19:17 41.37153 -2.16443 26922 ft 423 kts 196°
2026-04-28 19:17 41.34367 -2.17518 27045 ft 422 kts 196°
2026-04-28 19:18 41.31546 -2.18605 27170 ft 422 kts 196°
2026-04-28 19:18 41.28729 -2.19690 27295 ft 421 kts 196°
2026-04-28 19:18 41.25915 -2.20771 27420 ft 421 kts 196°
2026-04-28 19:18 41.23104 -2.21853 27544 ft 420 kts 196°
2026-04-28 19:19 41.20298 -2.22936 27669 ft 420 kts 196°
2026-04-28 19:19 41.17494 -2.24015 27794 ft 419 kts 196°
2026-04-28 19:19 41.14692 -2.25089 27919 ft 419 kts 196°
2026-04-28 19:19 41.11894 -2.26159 28043 ft 418 kts 196°
2026-04-28 19:20 41.09103 -2.27228 28168 ft 418 kts 196°
2026-04-28 19:20 41.06348 -2.28283 28291 ft 417 kts 196°
2026-04-28 19:20 41.03560 -2.29348 28416 ft 417 kts 196°
2026-04-28 19:20 41.00775 -2.30414 28541 ft 416 kts 196°
2026-04-28 19:21 40.97994 -2.31475 28666 ft 416 kts 196°
2026-04-28 19:21 40.95220 -2.32531 28791 ft 415 kts 196°
2026-04-28 19:21 40.92447 -2.33587 28916 ft 414 kts 196°
2026-04-28 19:21 40.89678 -2.34644 29041 ft 414 kts 196°
2026-04-28 19:22 40.86918 -2.35700 29166 ft 413 kts 196°
2026-04-28 19:22 40.86018 -2.36043 29206 ft 413 kts 196°
2026-04-28 19:22 40.81401 -2.37799 29415 ft 412 kts 196°
2026-04-28 19:22 40.78649 -2.38844 29540 ft 411 kts 196°
2026-04-28 19:23 40.75938 -2.39871 29664 ft 411 kts 196°
2026-04-28 19:23 40.73194 -2.40909 29789 ft 410 kts 196°
2026-04-28 19:23 40.70454 -2.41945 29913 ft 409 kts 196°
2026-04-28 19:23 40.67718 -2.42977 30038 ft 409 kts 196°
2026-04-28 19:24 40.64987 -2.44008 30163 ft 408 kts 196°
2026-04-28 19:24 40.62259 -2.45037 30288 ft 407 kts 196°
2026-04-28 19:24 40.59537 -2.46068 30413 ft 407 kts 196°
2026-04-28 19:24 40.56819 -2.47098 30538 ft 406 kts 196°
2026-04-28 19:25 40.54105 -2.48124 30663 ft 406 kts 196°
2026-04-28 19:25 40.51400 -2.49143 30788 ft 405 kts 196°
2026-04-28 19:25 40.48692 -2.50162 30912 ft 404 kts 196°
2026-04-28 19:25 40.46025 -2.51161 31036 ft 404 kts 196°
2026-04-28 19:26 40.43326 -2.52169 31161 ft 403 kts 196°
2026-04-28 19:26 40.40632 -2.53174 31286 ft 402 kts 196°
2026-04-28 19:26 40.37943 -2.54180 31410 ft 401 kts 197°
2026-04-28 19:26 40.35314 -2.55399 31536 ft 400 kts 201°
2026-04-28 19:27 40.32716 -2.56712 31661 ft 400 kts 201°
2026-04-28 19:27 40.30122 -2.58019 31785 ft 399 kts 201°
2026-04-28 19:27 40.27536 -2.59317 31910 ft 398 kts 201°
2026-04-28 19:27 40.24950 -2.60615 32035 ft 398 kts 201°
2026-04-28 19:28 40.22367 -2.61910 32159 ft 397 kts 201°
2026-04-28 19:28 40.19825 -2.63187 32283 ft 396 kts 201°
2026-04-28 19:28 40.17253 -2.64479 32408 ft 395 kts 201°
2026-04-28 19:28 40.14686 -2.65766 32532 ft 395 kts 201°
2026-04-28 19:29 40.12123 -2.67049 32657 ft 394 kts 201°
2026-04-28 19:29 40.10432 -2.67893 32740 ft 393 kts 201°
2026-04-28 19:29 40.07020 -2.69595 32907 ft 392 kts 201°
2026-04-28 19:29 40.04475 -2.70865 33031 ft 391 kts 201°
2026-04-28 19:30 40.01936 -2.72132 33156 ft 390 kts 201°
2026-04-28 19:30 39.99405 -2.73396 33281 ft 389 kts 201°
2026-04-28 19:30 39.96881 -2.74655 33406 ft 388 kts 201°
2026-04-28 19:30 39.94396 -2.75889 33529 ft 387 kts 201°
2026-04-28 19:31 39.91884 -2.77135 33654 ft 386 kts 201°
2026-04-28 19:31 39.89384 -2.78373 33778 ft 384 kts 201°
2026-04-28 19:31 39.86885 -2.79611 33903 ft 383 kts 201°
2026-04-28 19:31 39.84402 -2.80841 34027 ft 382 kts 201°
2026-04-28 19:32 39.81922 -2.82068 34152 ft 381 kts 201°
2026-04-28 19:32 39.79450 -2.83291 34277 ft 379 kts 201°
2026-04-28 19:32 39.75368 -2.85314 34484 ft 377 kts 201°
2026-04-28 19:33 39.72921 -2.86524 34609 ft 375 kts 201°
2026-04-28 19:33 39.70486 -2.87725 34733 ft 374 kts 201°
2026-04-28 19:33 39.67279 -2.89306 34898 ft 371 kts 201°
2026-04-28 19:33 39.64869 -2.90494 35022 ft 369 kts 201°
2026-04-28 19:34 39.60890 -2.92454 35229 ft 366 kts 201°
2026-04-28 19:34 39.58520 -2.93621 35353 ft 364 kts 201°
2026-04-28 19:34 39.56160 -2.94783 35477 ft 362 kts 201°
2026-04-28 19:35 39.53815 -2.95938 35602 ft 359 kts 201°
2026-04-28 19:35 39.51487 -2.97083 35726 ft 357 kts 201°
2026-04-28 19:35 39.49176 -2.98221 35850 ft 354 kts 201°
2026-04-28 19:35 39.46885 -2.99349 35974 ft 351 kts 201°
2026-04-28 19:36 39.44612 -3.00466 36097 ft 348 kts 201°
2026-04-28 19:36 39.42359 -3.01573 36220 ft 345 kts 201°
2026-04-28 19:36 39.40129 -3.02671 36344 ft 341 kts 201°
2026-04-28 19:36 39.37950 -3.03738 36465 ft 338 kts 201°
2026-04-28 19:37 39.35765 -3.04801 36589 ft 334 kts 201°
2026-04-28 19:37 39.34307 -3.05510 36670 ft 331 kts 201°
2026-04-28 19:37 39.29305 -3.07946 36589 ft 334 kts 201°
2026-04-28 19:38 39.24954 -3.10072 36614 ft 332 kts 201°
2026-04-28 19:38 39.20608 -3.12201 36531 ft 335 kts 201°
2026-04-28 19:39 39.18440 -3.13266 36632 ft 332 kts 201°
2026-04-28 19:39 39.16293 -3.14321 36708 ft 329 kts 201°
2026-04-28 19:39 39.11984 -3.16443 36548 ft 335 kts 201°
2026-04-28 19:40 39.07683 -3.18568 36648 ft 331 kts 201°
2026-04-28 19:40 39.03395 -3.20691 36612 ft 332 kts 201°
2026-04-28 19:41 39.01221 -3.21767 36361 ft 341 kts 200°
2026-04-28 19:41 38.98930 -3.22842 35835 ft 359 kts 200°
2026-04-28 19:41 38.96540 -3.23941 35584 ft 367 kts 199°
2026-04-28 19:41 38.94176 -3.25018 35706 ft 365 kts 200°
2026-04-28 19:42 38.91753 -3.26132 35287 ft 379 kts 200°
2026-04-28 19:42 38.89203 -3.27327 34568 ft 402 kts 200°
2026-04-28 19:42 38.86530 -3.28599 34136 ft 415 kts 200°
2026-04-28 19:42 38.83817 -3.29902 34081 ft 417 kts 201°
2026-04-28 19:43 38.78398 -3.32513 34255 ft 414 kts 201°
2026-04-28 19:43 38.73025 -3.35094 34269 ft 416 kts 200°
2026-04-28 19:44 38.67583 -3.37699 34079 ft 420 kts 200°
2026-04-28 19:44 38.62080 -3.40314 34051 ft 423 kts 200°
2026-04-28 19:45 38.56558 -3.42936 34051 ft 424 kts 200°
2026-04-28 19:45 38.51026 -3.45568 34058 ft 425 kts 200°
2026-04-28 19:46 38.45516 -3.48180 34091 ft 426 kts 200°
2026-04-28 19:46 38.39940 -3.50822 33992 ft 430 kts 200°
2026-04-28 19:47 38.34338 -3.53470 34010 ft 431 kts 200°
2026-04-28 19:47 38.28751 -3.56113 34009 ft 432 kts 200°
2026-04-28 19:48 38.23112 -3.58774 34009 ft 433 kts 200°
2026-04-28 19:48 38.17453 -3.61440 34009 ft 434 kts 200°
2026-04-28 19:49 38.11824 -3.64229 34009 ft 435 kts 203°
2026-04-28 19:49 38.06335 -3.67376 34009 ft 436 kts 205°
2026-04-28 19:50 38.00707 -3.70691 31925 ft 459 kts 205°
2026-04-28 19:50 37.97778 -3.72385 31402 ft 466 kts 204°
2026-04-28 19:50 37.94804 -3.74079 31157 ft 470 kts 204°
2026-04-28 19:51 37.91819 -3.75762 30954 ft 471 kts 204°
2026-04-28 19:51 37.88814 -3.77443 30753 ft 472 kts 204°
2026-04-28 19:51 37.85794 -3.79130 30612 ft 475 kts 204°
2026-04-28 19:51 37.82784 -3.80813 30733 ft 472 kts 204°
2026-04-28 19:52 37.79834 -3.82467 30859 ft 468 kts 204°
2026-04-28 19:52 37.76868 -3.84131 30984 ft 465 kts 204°
2026-04-28 19:52 37.73920 -3.85785 31011 ft 464 kts 204°
2026-04-28 19:53 37.68018 -3.89097 31009 ft 464 kts 204°
2026-04-28 19:53 37.62119 -3.92397 31009 ft 463 kts 204°
2026-04-28 19:54 37.56263 -3.95663 31009 ft 463 kts 204°
2026-04-28 19:54 37.50375 -3.98938 31009 ft 463 kts 204°
2026-04-28 19:55 37.44489 -4.02218 31009 ft 462 kts 204°
2026-04-28 19:55 37.38606 -4.05492 31009 ft 462 kts 204°
2026-04-28 19:56 37.32725 -4.08755 31009 ft 462 kts 204°
2026-04-28 19:56 37.26883 -4.11985 31009 ft 462 kts 204°
2026-04-28 19:57 37.21005 -4.15231 31009 ft 461 kts 204°
2026-04-28 19:57 37.15134 -4.18471 31009 ft 461 kts 204°
2026-04-28 19:58 37.09256 -4.21703 31009 ft 461 kts 204°
2026-04-28 19:58 37.03418 -4.24907 31009 ft 461 kts 204°
2026-04-28 19:59 36.97550 -4.28133 31009 ft 461 kts 204°
2026-04-28 19:59 36.91673 -4.31359 31009 ft 461 kts 204°
2026-04-28 20:00 36.85804 -4.34567 31009 ft 461 kts 204°
2026-04-28 20:00 36.80042 -4.38049 31009 ft 460 kts 212°
2026-04-28 20:01 36.74679 -4.42325 31009 ft 460 kts 213°
2026-04-28 20:01 36.69281 -4.46625 31009 ft 460 kts 212°
2026-04-28 20:02 36.63885 -4.50907 31009 ft 460 kts 212°
2026-04-28 20:02 36.58479 -4.55188 31009 ft 460 kts 212°
2026-04-28 20:03 36.53112 -4.59428 31009 ft 460 kts 212°
2026-04-28 20:03 36.47709 -4.63698 31009 ft 460 kts 212°
2026-04-28 20:04 36.42301 -4.67957 31009 ft 460 kts 212°
2026-04-28 20:04 36.36901 -4.72209 31009 ft 460 kts 212°
2026-04-28 20:05 36.31529 -4.76432 31009 ft 460 kts 212°
2026-04-28 20:05 36.26117 -4.80671 31009 ft 460 kts 212°
2026-04-28 20:06 36.20706 -4.84909 31009 ft 460 kts 212°
2026-04-28 20:06 36.15294 -4.89141 31009 ft 460 kts 212°
2026-04-28 20:07 36.09891 -4.93390 31009 ft 460 kts 213°
2026-04-28 20:07 36.04548 -4.97635 31009 ft 460 kts 213°
2026-04-28 20:08 35.99157 -5.01905 31009 ft 460 kts 212°
2026-04-28 20:08 35.93761 -5.06162 31009 ft 460 kts 213°
2026-04-28 20:09 35.88371 -5.10412 31009 ft 460 kts 212°
2026-04-28 20:09 35.82970 -5.14653 31009 ft 460 kts 213°
2026-04-28 20:10 35.77782 -5.19192 31009 ft 460 kts 217°
2026-04-28 20:10 35.72732 -5.24028 31009 ft 460 kts 218°
2026-04-28 20:11 35.67663 -5.28844 31009 ft 460 kts 217°
2026-04-28 20:11 35.62535 -5.33565 31009 ft 460 kts 217°
2026-04-28 20:12 35.57427 -5.38212 31009 ft 460 kts 217°
2026-04-28 20:12 35.52283 -5.42901 31009 ft 460 kts 217°
2026-04-28 20:13 35.47148 -5.47604 31009 ft 460 kts 217°
2026-04-28 20:13 35.42009 -5.52297 31009 ft 461 kts 217°
2026-04-28 20:14 35.36897 -5.56950 31009 ft 461 kts 217°
2026-04-28 20:14 35.31752 -5.61635 31009 ft 461 kts 217°
2026-04-28 20:15 35.26607 -5.66303 31009 ft 461 kts 217°
2026-04-28 20:15 35.21454 -5.70973 31009 ft 461 kts 217°
2026-04-28 20:16 35.16335 -5.75609 31009 ft 461 kts 217°
2026-04-28 20:16 35.11179 -5.80272 31009 ft 461 kts 216°
2026-04-28 20:17 35.06024 -5.84920 31009 ft 461 kts 217°
2026-04-28 20:17 35.00615 -5.89073 31010 ft 461 kts 204°
2026-04-28 20:18 34.94724 -5.92152 31009 ft 461 kts 203°
2026-04-28 20:18 34.88854 -5.95160 31009 ft 461 kts 203°
2026-04-28 20:19 34.82948 -5.98199 31009 ft 461 kts 203°
2026-04-28 20:19 34.77045 -6.01247 31009 ft 461 kts 203°
2026-04-28 20:20 34.71141 -6.04291 31009 ft 461 kts 203°
2026-04-28 20:20 34.65279 -6.07303 31009 ft 461 kts 203°
2026-04-28 20:21 34.59369 -6.10332 31009 ft 461 kts 203°
2026-04-28 20:21 34.53457 -6.13353 31009 ft 461 kts 203°
2026-04-28 20:22 34.47547 -6.16381 31009 ft 461 kts 203°
2026-04-28 20:22 34.41676 -6.19387 31009 ft 461 kts 203°
2026-04-28 20:23 34.35762 -6.22403 31009 ft 461 kts 203°
2026-04-28 20:23 34.29852 -6.25409 31009 ft 461 kts 203°
2026-04-28 20:24 34.23937 -6.28420 31009 ft 461 kts 203°
2026-04-28 20:24 34.18019 -6.31424 31009 ft 461 kts 203°
2026-04-28 20:25 34.12137 -6.34398 31009 ft 461 kts 203°
2026-04-28 20:25 34.06215 -6.37390 31009 ft 461 kts 203°
2026-04-28 20:26 34.00293 -6.40385 31009 ft 461 kts 203°
2026-04-28 20:26 33.94370 -6.43376 31009 ft 461 kts 203°
2026-04-28 20:27 33.88452 -6.46356 31009 ft 462 kts 202°
2026-04-28 20:27 33.82564 -6.49315 31009 ft 462 kts 203°
2026-04-28 20:28 33.76638 -6.52296 31009 ft 462 kts 202°
2026-04-28 20:28 33.70710 -6.55273 31009 ft 462 kts 202°
2026-04-28 20:29 33.64778 -6.58242 31009 ft 462 kts 202°
2026-04-28 20:29 33.58891 -6.61185 31009 ft 462 kts 202°
2026-04-28 20:30 33.52958 -6.64150 31009 ft 462 kts 202°
2026-04-28 20:30 33.47022 -6.67105 31009 ft 462 kts 202°
2026-04-28 20:31 33.41085 -6.70059 31009 ft 462 kts 202°
2026-04-28 20:31 33.35188 -6.72991 31009 ft 462 kts 202°
2026-04-28 20:32 33.29250 -6.75942 31009 ft 462 kts 202°
2026-04-28 20:32 33.23316 -6.78882 31009 ft 462 kts 202°
2026-04-28 20:33 33.17369 -6.81819 31009 ft 462 kts 202°
2026-04-28 20:33 33.11432 -6.84755 31009 ft 462 kts 202°
2026-04-28 20:34 33.05532 -6.87671 31009 ft 462 kts 202°
2026-04-28 20:34 32.99586 -6.90608 31009 ft 462 kts 202°
2026-04-28 20:35 32.93639 -6.93529 31009 ft 462 kts 202°
2026-04-28 20:35 32.87699 -6.96443 31009 ft 462 kts 202°
2026-04-28 20:36 32.81791 -6.99338 31009 ft 462 kts 202°
2026-04-28 20:36 32.75842 -7.02252 31009 ft 462 kts 202°
2026-04-28 20:37 32.69896 -7.05168 31009 ft 462 kts 202°
2026-04-28 20:37 32.66920 -7.06622 30852 ft 463 kts 202°
2026-04-28 20:37 32.63934 -7.08077 29959 ft 467 kts 202°
2026-04-28 20:37 32.60921 -7.09546 29237 ft 468 kts 202°
2026-04-28 20:38 32.57954 -7.10991 28514 ft 465 kts 202°
2026-04-28 20:38 32.54970 -7.12444 27784 ft 462 kts 202°
2026-04-28 20:38 32.52015 -7.13884 27113 ft 457 kts 202°
2026-04-28 20:38 32.49066 -7.15320 26357 ft 462 kts 202°
2026-04-28 20:39 32.46068 -7.16780 25650 ft 467 kts 202°
2026-04-28 20:39 32.43075 -7.18237 24938 ft 464 kts 202°
2026-04-28 20:39 32.40101 -7.19682 24233 ft 459 kts 202°
2026-04-28 20:39 32.37159 -7.21107 23539 ft 454 kts 202°
2026-04-28 20:40 32.34289 -7.22495 22884 ft 449 kts 202°
2026-04-28 20:40 32.31413 -7.23885 22258 ft 444 kts 202°
2026-04-28 20:40 32.28578 -7.25272 21650 ft 438 kts 205°
2026-04-28 20:40 32.25959 -7.27064 21067 ft 433 kts 216°
2026-04-28 20:41 32.23722 -7.29412 20491 ft 428 kts 227°
2026-04-28 20:41 32.21745 -7.32015 19937 ft 425 kts 228°
2026-04-28 20:41 32.19781 -7.34598 19383 ft 420 kts 228°
2026-04-28 20:41 32.17835 -7.37152 18835 ft 416 kts 228°
2026-04-28 20:42 32.15906 -7.39678 18267 ft 412 kts 228°
2026-04-28 20:42 32.14019 -7.42145 17711 ft 408 kts 228°
2026-04-28 20:42 32.12124 -7.44619 17130 ft 404 kts 228°
2026-04-28 20:42 32.10243 -7.47066 16534 ft 401 kts 227°
2026-04-28 20:43 32.08098 -7.49178 15659 ft 404 kts 211°
2026-04-28 20:43 32.05667 -7.50751 15331 ft 393 kts 208°
2026-04-28 20:43 32.03294 -7.52297 14857 ft 387 kts 209°
2026-04-28 20:43 32.00962 -7.53830 14328 ft 383 kts 209°
2026-04-28 20:44 31.98647 -7.55351 13792 ft 379 kts 209°
2026-04-28 20:44 31.96383 -7.56834 13302 ft 374 kts 209°
2026-04-28 20:44 31.94150 -7.58291 13161 ft 359 kts 209°
2026-04-28 20:44 31.92004 -7.59686 13033 ft 345 kts 209°
2026-04-28 20:45 31.89977 -7.61002 12876 ft 321 kts 209°
2026-04-28 20:45 31.88049 -7.62248 12617 ft 313 kts 209°
2026-04-28 20:45 31.86155 -7.63473 12325 ft 309 kts 209°
2026-04-28 20:45 31.84280 -7.64685 11982 ft 306 kts 209°
2026-04-28 20:46 31.82419 -7.65890 11629 ft 304 kts 209°
2026-04-28 20:46 31.80593 -7.67069 11277 ft 302 kts 209°
2026-04-28 20:46 31.78754 -7.68255 10918 ft 301 kts 209°
2026-04-28 20:46 31.76927 -7.69436 10557 ft 299 kts 209°
2026-04-28 20:47 31.75102 -7.70616 10089 ft 300 kts 209°
2026-04-28 20:47 31.73257 -7.71806 9408 ft 308 kts 209°
2026-04-28 20:47 31.71344 -7.73037 8577 ft 320 kts 209°
2026-04-28 20:47 31.69361 -7.74314 7711 ft 330 kts 209°
2026-04-28 20:48 31.67339 -7.75619 7005 ft 327 kts 209°
2026-04-28 20:48 31.65429 -7.76851 6564 ft 308 kts 209°
2026-04-28 20:48 31.63600 -7.78028 6153 ft 291 kts 209°
2026-04-28 20:48 31.61871 -7.79137 5760 ft 275 kts 209°
2026-04-28 20:49 31.60242 -7.80203 5386 ft 261 kts 213°
2026-04-28 20:49 31.59090 -7.81714 5034 ft 246 kts 248°
2026-04-28 20:49 31.58902 -7.83633 4698 ft 234 kts 275°
2026-04-28 20:49 31.59060 -7.85493 4374 ft 225 kts 276°
2026-04-28 20:50 31.59223 -7.87294 4057 ft 219 kts 276°
2026-04-28 20:50 31.59383 -7.89031 3751 ft 208 kts 276°
2026-04-28 20:50 31.59535 -7.90689 3472 ft 202 kts 276°
2026-04-28 20:50 31.59678 -7.92255 3216 ft 189 kts 275°
2026-04-28 20:51 31.59812 -7.93738 2952 ft 178 kts 275°
2026-04-28 20:51 31.59938 -7.95149 2691 ft 168 kts 275°
2026-04-28 20:51 31.60059 -7.96422 2614 ft 150 kts 276°
2026-04-28 20:51 31.60129 -7.97217 2533 ft 146 kts 275°
2026-04-28 20:52 31.60268 -7.98776 2207 ft 141 kts 275°
2026-04-28 20:52 31.60360 -7.99919 1977 ft 140 kts 275°
2026-04-28 20:52 31.60463 -8.01054 1762 ft 139 kts 276°
2026-04-28 20:52 31.60559 -8.02181 1589 ft 138 kts 275°
2026-04-28 20:53 31.60718 -8.03988 1539 ft 57 kts 275°
2026-04-28 20:53 31.60744 -8.04302 1540 ft 21 kts 272°
2026-04-28 20:53 31.60701 -8.04389 1540 ft 12 kts 186°
2026-04-28 20:54 31.60622 -8.04399 1540 ft 9 kts 186°
2026-04-28 20:54 31.60583 -8.04363 1540 ft 7 kts 107°
2026-04-28 20:54 31.60576 -8.04311 1540 ft 6 kts 95°
2026-04-28 20:54 31.60572 -8.04264 1540 ft 7 kts 95°
2026-04-28 20:55 31.60564 -8.04170 1540 ft 17 kts 96°
2026-04-28 20:55 31.60549 -8.03994 1539 ft 27 kts 96°
2026-04-28 20:55 31.60526 -8.03744 1539 ft 35 kts 96°
2026-04-28 20:55 31.60499 -8.03436 1540 ft 41 kts 96°
2026-04-28 20:56 31.60467 -8.03082 1540 ft 46 kts 96°
2026-04-28 20:56 31.60436 -8.02711 1540 ft 39 kts 96°
2026-04-28 20:56 31.60414 -8.02447 1540 ft 31 kts 97°
2026-04-28 20:56 31.60399 -8.02290 1539 ft 1 kts 107°
2026-04-28 20:57 31.60372 -8.02284 1539 ft 8 kts 184°
2026-04-28 20:57 31.60327 -8.02293 1540 ft 8 kts 186°
2026-04-28 20:57 31.60305 -8.02295 1540 ft 2 kts 186°